Location: Hamburg
(53.5500°N, 10.0000°E)
Time: 14:02:39
(UTC+02:00)

A-11 Canister half - All Passes

Search period start: 23 August 2017 00:00
Search period end: 02 September 2017 00:00
Orbit: 1525 x 1685 km, 47.3° (Epoch: 22 August)

Date Brightness Start Highest point End Pass type
(mag) Time Alt. Az. Time Alt. Az. Time Alt. Az.
23 Aug - 00:06:52 10° W 00:16:25 48° SSW 00:25:55 10° SE visible
23 Aug - 02:12:27 10° W 02:19:44 23° SW 02:26:57 10° S visible
23 Aug - 17:36:01 10° S 17:43:00 22° SE 17:50:07 10° E daylight
23 Aug - 19:36:53 10° SW 19:46:15 48° SSE 19:55:47 10° E daylight
23 Aug - 21:40:38 10° WSW 21:50:31 62° S 22:00:29 10° ESE visible
23 Aug - 23:45:15 10° W 23:54:51 49° SSW 00:04:24 10° SE visible
24 Aug - 01:50:44 10° W 01:58:13 24° SW 02:05:38 10° S visible
24 Aug - 17:14:44 10° S 17:21:30 21° SE 17:28:23 10° E daylight
24 Aug - 19:15:23 10° SW 19:24:41 47° SSE 19:34:10 10° E daylight
24 Aug - 21:19:03 10° WSW 21:28:55 62° S 21:38:52 10° ESE visible
24 Aug - 23:23:38 10° W 23:33:15 51° SSW 23:42:52 10° SE visible
25 Aug - 01:29:02 10° W 01:36:41 25° SW 01:44:18 10° S visible
25 Aug - 16:53:29 10° S 17:00:00 20° SE 17:06:37 10° E daylight
25 Aug - 18:53:52 10° SW 19:03:06 45° SSE 19:12:32 10° E daylight
25 Aug - 20:57:28 10° WSW 21:07:18 62° S 21:17:16 10° E visible
25 Aug - 23:02:01 10° W 23:11:41 52° SSW 23:21:19 10° SE visible
26 Aug - 01:07:20 10° W 01:15:09 26° SW 01:22:57 10° S visible
26 Aug - 16:32:15 10° S 16:38:30 19° SE 16:44:50 10° E daylight
26 Aug - 18:32:23 10° SW 18:41:32 44° SSE 18:50:54 10° E daylight
26 Aug - 20:35:54 10° WSW 20:45:42 62° S 20:55:40 10° E daylight
26 Aug - 22:40:25 10° W 22:50:05 52° SSW 22:59:46 10° SE visible
27 Aug - 00:45:39 10° W 00:53:38 27° SW 01:01:34 10° S visible
27 Aug - 16:11:03 10° SSE 16:17:00 18° SE 16:23:02 10° E daylight
27 Aug - 18:10:54 10° SW 18:19:58 43° SSE 18:29:16 10° E daylight
27 Aug - 20:14:19 10° WSW 20:24:06 62° S 20:34:03 10° E daylight
27 Aug - 22:18:49 10° W 22:28:30 53° SSW 22:38:13 10° SE visible
28 Aug - 00:23:59 10° W 00:32:06 28° SW 00:40:11 10° SSE visible
28 Aug - 15:49:52 10° SSE 15:55:30 17° SE 16:01:13 10° E daylight
28 Aug - 17:49:25 10° SW 17:58:25 42° SSE 18:07:38 10° E daylight
28 Aug - 19:52:45 10° WSW 20:02:30 61° S 20:12:27 10° E daylight
28 Aug - 21:57:12 10° W 22:06:54 54° SSW 22:16:39 10° SE visible
29 Aug - 00:02:19 10° W 00:10:33 30° SW 00:18:47 10° SSE visible
29 Aug - 15:28:45 10° SSE 15:34:01 16° SE 15:39:22 10° E daylight
29 Aug - 17:27:57 10° SSW 17:36:52 41° SSE 17:46:00 10° E daylight
29 Aug - 19:31:11 10° WSW 19:40:54 61° S 19:50:50 10° E daylight
29 Aug - 21:35:37 10° W 21:45:19 55° SSW 21:55:05 10° ESE visible
29 Aug - 23:40:39 10° W 23:49:01 31° SW 23:57:23 10° SSE visible
30 Aug - 15:07:39 10° SSE 15:12:32 15° SE 15:17:29 10° E daylight
30 Aug - 17:06:29 10° SSW 17:15:18 39° SSE 17:24:21 10° E daylight
30 Aug - 19:09:37 10° WSW 19:19:18 60° S 19:29:13 10° E daylight
30 Aug - 21:14:01 10° W 21:23:43 56° SSW 21:33:31 10° ESE visible
30 Aug - 23:19:00 10° W 23:27:28 32° SW 23:35:57 10° SSE visible
31 Aug - 14:46:37 10° SSE 14:51:03 14° SE 14:55:33 10° E daylight
31 Aug - 16:45:02 10° SSW 16:53:45 38° SSE 17:02:42 10° E daylight
31 Aug - 18:48:03 10° WSW 18:57:42 60° S 19:07:36 10° E daylight
31 Aug - 20:52:25 10° W 21:02:07 57° SSW 21:11:57 10° ESE visible
31 Aug - 22:57:21 10° W 23:05:56 33° SW 23:14:31 10° SSE visible
01 Sep - 01:07:25 10° WSW 01:08:25 10° WSW 01:09:24 10° SW visible
01 Sep - 14:25:39 10° SSE 14:29:35 13° SE 14:33:33 10° E daylight
01 Sep - 16:23:36 10° SSW 16:32:13 37° SE 16:41:03 10° E daylight
01 Sep - 18:26:31 10° WSW 18:36:07 59° S 18:45:59 10° E daylight
01 Sep - 20:30:50 10° W 20:40:31 57° SSW 20:50:23 10° ESE visible
01 Sep - 22:35:43 10° W 22:44:23 34° SW 22:53:05 10° SSE visible
